This is the latest recevied weather packets stored in our database for station/object W8MRL. If no packets are shown the sender has not sent any weather packets the latest 10 day(s).
| Time | Temp. | Humidity | Pressure | Rain* | Wind** | Luminosity | Snow |
|---|---|---|---|---|---|---|---|
| 1777660257 | 11.11° C | 70% | 1019.1 hPa | 0 mm | - | - | - |
| 1777659358 | 11.11° C | 72% | 1018.9 hPa | 0 mm | - | - | - |
| 1777658463 | 11.67° C | 70% | 1018.7 hPa | 0 mm | - | - | - |
| 1777657563 | 11.11° C | 70% | 1018.3 hPa | 0 mm | - | - | - |
| 1777656657 | 11.11° C | 71% | 1018.2 hPa | 0 mm | - | - | - |
| 1777655756 | 11.67° C | 67% | 1018 hPa | 0 mm | - | - | - |
| 1777654850 | 12.22° C | 69% | 1017.7 hPa | 0 mm | - | - | - |
| 1777653957 | 11.11° C | 73% | 1017.6 hPa | 0 mm | - | - | - |
| 1777653049 | 11.67° C | 70% | 1017.4 hPa | 0 mm | - | - | - |
| 1777652146 | 10.56° C | 78% | 1017.2 hPa | 0 mm | - | - | - |
| 1777651250 | 9.44° C | 79% | 1017.2 hPa | 0 mm | - | - | - |
| 1777650346 | 10.56° C | 85% | 1016.8 hPa | 0 mm | - | - | - |
| 1777649440 | 9.44° C | 87% | 1016.7 hPa | 0 mm | - | - | - |
| 1777648542 | 10° C | 85% | 1016.6 hPa | 0.25 mm | - | - | - |
| 1777647637 | 9.44° C | 86% | 1016.5 hPa | 0.25 mm | - | - | - |
| 1777646734 | 8.89° C | 85% | 1016.4 hPa | 0.25 mm | - | - | - |
| 1777645832 | 8.33° C | 86% | 1016.4 hPa | 0.25 mm | - | - | - |
| 1777644931 | 8.33° C | 86% | 1016.2 hPa | 0 mm | - | - | - |
| 1777644030 | 8.33° C | 84% | 1016.2 hPa | 0 mm | - | - | - |
| 1777643130 | 8.33° C | 85% | 1016.2 hPa | 0.25 mm | - | - | - |
| 1777642236 | 8.33° C | 84% | 1016.3 hPa | 0.25 mm | - | - | - |
| 1777641333 | 8.33° C | 84% | 1016.1 hPa | 0.25 mm | - | - | - |
| 1777640428 | 8.33° C | 84% | 1016.1 hPa | 0.25 mm | - | - | - |
| 1777639527 | 8.33° C | 83% | 1016.2 hPa | 0 mm | - | - | - |
| 1777638632 | 8.33° C | 81% | 1016.3 hPa | 0 mm | - | - | - |
* Rain latest hour (hover to see other rain measurements)
** Current wind speed in m/s (hover to see current wind gust speed)